Location: Little Chesterford
(52.0500°N, 0.1833°E)
Time: 17:04:34
(UTC+00:00)

COSMOS 2455 - Pass Details

Date: 26 September 2023
Orbit: 902 x 907 km, 67.1° (Epoch: 08 December)

Event Time Altitude Azimuth Distance (km) Brightness Sun altitude
Rises 18:47:06 0° 321° (NW) 3,543 6.8 -9.7°
Reaches altitude 10° 18:49:40 10° 325° (NW) 2,599 5.9 -10.1°
Maximum altitude 18:55:38 60° 46° (NE) 1,034 3.0 -11.0°
Enters shadow 19:00:56 13° 124° (SE) 2,357 4.4 -11.8°
